[[{"header":{"parameterUnit":"m.s-1","parameterCategory":1,"la1":30.2991,"la2":30.254,"lo1":-89.0895,"lo2":-89.0444,"dy":0.0017,"dx":0.0017,"nx":28,"ny":28,"refTime":"2024-11-27T09:00:00:Z","depth":0,"parameterNumber":2,"parameterNumberName":"U-component_of_WINDS"},"data":[0,0,0,0,0,0,0,0,0,0,0,0,0,0,0,0,0,0,0,0,0,0,0,0,0,0,0,0,0,0,0,0,0,0,0,0,0,0,0,0,0,0,0,0,0,0,0,0,0,0,0,0,0,0,0,0,0,0,-0.5719,-0.5719,0,-0.5687,-0.5686,-0.5686,-0.568,-0.568,-0.568,-0.568,-0.5646,-0.5645,-0.5644,0,0,0,0,0,0,0,0,0,0,0,0,0,-0.5776,-0.5775,-0.5719,-0.5719,-0.5719,-0.5687,-0.5686,-0.5686,-0.568,-0.568,-0.568,-0.5681,-0.5646,-0.5645,-0.5644,0,0,0,0,0,0,0,0,0,0,0,0,0,-0.5748,-0.5774,-0.572,-0.5712,-0.5711,-0.5687,-0.5686,-0.5686,-0.568,-0.568,-0.568,-0.5681,-0.5647,-0.5645,-0.5643,-0.5625,0,0,-0.5638,-0.5637,0,0,0,0,0,0,0,0,-0.575,-0.5746,-0.5713,-0.5712,-0.5711,-0.5688,-0.5694,-0.5665,-0.5679,-0.5691,-0.568,-0.5681,-0.5659,-0.5657,-0.565,-0.5623,-0.5622,-0.5638,-0.5637,-0.5636,-0.5636,0,0,0,0,0,0,0,-0.5752,-0.5747,-0.5707,-0.5713,-0.5711,-0.571,-0.5706,-0.5688,-0.5674,-0.569,-0.569,-0.5686,-0.5659,-0.5651,-0.5649,-0.5621,-0.5638,-0.5636,-0.5635,-0.5635,-0.5579,-0.5579,0,0,0,0,0,0,-0.5755,-0.5749,-0.5708,-0.5706,-0.5732,-0.5708,-0.5704,-0.5695,-0.5674,-0.5671,-0.5686,-0.5686,-0.5654,-0.5651,-0.5648,-0.5625,-0.5636,-0.5635,-0.5634,-0.558,-0.5579,-0.5579,0,0,0,0,0,0,-0.5756,-0.5751,-0.5709,-0.5727,-0.5722,-0.5707,-0.5696,-0.5694,-0.5686,-0.567,-0.5668,-0.5681,-0.5654,-0.565,-0.5631,-0.5624,-0.5634,-0.5632,-0.558,-0.558,-0.5579,-0.558,0,0,0,0,0,0,-0.5758,-0.5752,-0.5745,-0.5727,-0.5721,-0.5693,-0.5696,-0.5693,-0.5684,-0.5683,-0.5665,-0.5662,-0.5654,-0.5634,-0.5629,-0.5622,-0.5631,-0.5581,-0.558,-0.5579,-0.558,-0.5579,-0.5578,0,0,0,0,0,-0.576,-0.5746,-0.5744,-0.5739,-0.5711,-0.5692,-0.5689,-0.568,-0.5683,-0.5676,-0.5666,-0.5663,-0.5626,-0.5632,-0.5627,-0.5618,-0.5581,-0.558,-0.5579,-0.5581,-0.5579,-0.5578,0,0,0,0,0,0,-0.5762,-0.5743,-0.5741,-0.5721,-0.5708,-0.5691,-0.5682,-0.5679,-0.5665,-0.5665,-0.5655,-0.5651,-0.5632,-0.5624,-0.5631,-0.56,-0.5604,-0.5602,-0.5606,-0.5605,-0.5604,-0.5606,-0.5629,0,0,0,0,0,-0.576,-0.5747,-0.5731,-0.5714,-0.5708,-0.5696,-0.5687,-0.5682,-0.5668,-0.5663,-0.5651,-0.5638,-0.5623,-0.5614,-0.5599,-0.5579,-0.5575,-0.5571,-0.557,-0.5569,-0.5568,-0.5557,-0.5555,-0.5576,-0.5576,-0.5576,0,0,-0.5756,-0.5744,-0.5736,-0.5715,-0.5704,-0.569,-0.5692,-0.5676,-0.5666,-0.566,-0.5642,-0.5633,-0.5618,-0.5598,-0.5589,-0.559,-0.5561,-0.5568,-0.5568,-0.5566,-0.5556,-0.5554,-0.5552,-0.5575,-0.5575,-0.5575,0,0,-0.5742,-0.5731,-0.5717,-0.5706,-0.5691,-0.5683,-0.568,-0.5663,-0.5657,-0.5639,-0.5635,-0.5622,-0.5597,-0.5586,-0.5577,-0.556,-0.5557,-0.5556,-0.555,-0.554,-0.5539,-0.5537,-0.5531,-0.5529,-0.5554,-0.5554,-0.5554,0,-0.5738,-0.5717,-0.5709,-0.5695,-0.5686,-0.5681,-0.5666,-0.5657,-0.5637,-0.5631,-0.5633,-0.5602,-0.5591,-0.5569,-0.5565,-0.5558,-0.5554,-0.5558,-0.5539,-0.5538,-0.5536,-0.553,-0.5528,-0.5554,-0.5554,-0.5554,-0.5554,0,-0.5714,-0.5699,-0.569,-0.5672,-0.5661,-0.5647,-0.5637,-0.5627,-0.5624,-0.5616,-0.5597,-0.5584,-0.5567,-0.5562,-0.5558,-0.554,-0.5541,-0.5542,-0.5545,-0.5534,-0.5529,-0.5526,-0.5554,-0.5554,-0.5554,-0.5554,0,0,-0.5698,-0.5677,-0.5674,-0.5666,-0.5649,-0.5638,-0.5623,-0.5607,-0.56,-0.5587,-0.5574,-0.5554,-0.5554,-0.5544,-0.5539,-0.553,-0.5518,-0.5531,-0.5531,-0.5529,-0.5498,-0.5497,-0.5495,-0.5516,-0.5516,-0.5515,-0.5499,0,-0.5681,-0.5656,-0.5649,-0.5627,-0.5614,-0.561,-0.5597,-0.5586,-0.5578,-0.5566,-0.5558,-0.5544,-0.5545,-0.5539,-0.553,-0.5521,-0.5511,-0.5522,-0.5504,-0.5504,-0.5508,-0.5492,-0.5491,-0.5476,-0.5497,-0.5496,-0.5496,0,-0.5658,-0.5645,-0.5622,-0.5608,-0.5602,-0.5591,-0.5576,-0.5565,-0.5552,-0.5547,-0.5537,-0.5533,-0.5518,-0.5523,-0.5502,-0.551,-0.5502,-0.5497,-0.5496,-0.5493,-0.5499,-0.5488,-0.5471,-0.5468,-0.5492,-0.5493,-0.5493,0,-0.5649,-0.5626,-0.5609,-0.5603,-0.5586,-0.5578,-0.5571,-0.5558,-0.5549,-0.5537,-0.5531,-0.5517,-0.5509,-0.5498,-0.549,-0.5494,-0.547,-0.5474,-0.5466,-0.5466,-0.546,-0.546,-0.5441,-0.5456,-0.5456,-0.5456,-0.5456,0,-0.563,-0.5616,-0.5605,-0.5595,-0.5579,-0.5572,-0.5557,-0.5549,-0.5538,-0.5526,-0.5522,-0.5511,-0.5502,-0.549,-0.5484,-0.5468,-0.5464,-0.546,-0.5458,-0.546,-0.5461,-0.5454,-0.5455,-0.5455,-0.5456,-0.5456,-0.5456,0,-0.5617,-0.5609,-0.5591,-0.5577,-0.5573,-0.5562,-0.555,-0.554,-0.5533,-0.5518,-0.5514,-0.5503,-0.5489,-0.5481,-0.5462,-0.5458,-0.544,-0.5439,-0.5445,-0.5444,-0.5436,-0.5437,-0.5411,-0.5407,-0.5426,-0.5425,-0.5425,0,-0.5605,-0.5594,-0.558,-0.5572,-0.5564,-0.5552,-0.5543,-0.5536,-0.5527,-0.5512,-0.5504,-0.549,-0.5477,-0.5455,-0.5445,-0.5431,-0.543,-0.5422,-0.5428,-0.543,-0.5429,-0.543,-0.5429,-0.5421,-0.542,-0.542,-0.542,0,-0.5586,-0.5582,-0.557,-0.5557,-0.5547,-0.5536,-0.5525,-0.5519,-0.551,-0.55,-0.5486,-0.5476,-0.5458,-0.5444,-0.543,-0.5422,-0.542,-0.5419,-0.5416,-0.5417,-0.5421,-0.5418,-0.5442,-0.5419,-0.5419,-0.5419,-0.5419,-0.5419,-0.5572,-0.5563,-0.5551,-0.5538,-0.5529,-0.5519,-0.551,-0.5502,-0.549,-0.5475,-0.5471,-0.5456,-0.5445,-0.5425,-0.5418,-0.5406,-0.5407,-0.5403,-0.5402,-0.5401,-0.5401,-0.5423,-0.5403,-0.5403,-0.5403,-0.5403,-0.5403,0,-0.5552,-0.5545,-0.5533,-0.5518,-0.5508,-0.5508,-0.5496,-0.5487,-0.5474,-0.5463,-0.5452,-0.5436,-0.5422,-0.5412,-0.5399,-0.5391,-0.539,-0.5388,-0.5388,-0.5386,-0.54,-0.5404,-0.5389,-0.5389,-0.5389,-0.5389,-0.5389,-0.5389,-0.5541,-0.5525,-0.552,-0.55,-0.5493,-0.5478,-0.5472,-0.5463,-0.5454,-0.5437,-0.5426,-0.5419,-0.5409,-0.5395,-0.5383,-0.538,-0.5375,-0.5373,-0.5371,-0.5384,-0.5385,-0.5387,-0.539,-0.5372,-0.5372,-0.5357,-0.5357,-0.5357]},{"header":{"parameterUnit":"m.s-1","parameterCategory":1,"la1":30.2991,"la2":30.254,"lo1":-89.0895,"lo2":-89.0444,"dy":0.0017,"dx":0.0017,"nx":28,"ny":28,"refTime":"2024-11-27T09:00:00:Z","depth":0,"parameterNumber":3,"parameterNumberName":"V-component_of_WINDS"},"data":[0,0,0,0,0,0,0,0,0,0,0,0,0,0,0,0,0,0,0,0,0,0,0,0,0,0,0,0,0,0,0,0,0,0,0,0,0,0,0,0,0,0,0,0,0,0,0,0,0,0,0,0,0,0,0,0,0,0,5.4228,5.4229,0,5.4312,5.4313,5.4314,5.4298,5.4297,5.4295,5.4294,5.4375,5.4378,5.4382,0,0,0,0,0,0,0,0,0,0,0,0,0,5.4049,5.4052,5.4228,5.4229,5.423,5.4312,5.4313,5.4315,5.4298,5.4297,5.4295,5.4293,5.4374,5.4378,5.4382,0,0,0,0,0,0,0,0,0,0,0,0,0,5.4129,5.4054,5.4228,5.4232,5.4234,5.4312,5.4313,5.4315,5.4299,5.4297,5.4294,5.4292,5.4372,5.4377,5.4383,5.446,0,0,5.4399,5.4401,0,0,0,0,0,0,0,0,5.4125,5.4136,5.4231,5.4232,5.4234,5.4293,5.428,5.4363,5.4299,5.4274,5.4294,5.4291,5.4349,5.4356,5.4377,5.4464,5.4468,5.4399,5.4403,5.4405,5.4406,0,0,0,0,0,0,0,5.4119,5.4132,5.4261,5.4232,5.4234,5.4228,5.4237,5.4296,5.4323,5.4276,5.4275,5.4285,5.4349,5.4371,5.4378,5.4469,5.4399,5.4404,5.4407,5.4409,5.4625,5.4627,0,0,0,0,0,0,5.4113,5.4128,5.4259,5.4264,5.4173,5.4234,5.4244,5.4276,5.4322,5.4327,5.4287,5.4284,5.4363,5.4372,5.4381,5.4476,5.4405,5.441,5.4413,5.4622,5.4625,5.4628,0,0,0,0,0,0,5.4109,5.4125,5.4255,5.4196,5.4212,5.4239,5.4275,5.4279,5.4301,5.4331,5.4335,5.4305,5.4362,5.4374,5.4441,5.4478,5.4412,5.4417,5.4619,5.4623,5.4627,5.4665,0,0,0,0,0,0,5.4104,5.4124,5.4154,5.4196,5.4215,5.4316,5.4278,5.4282,5.4311,5.4308,5.4349,5.4353,5.4361,5.4433,5.4447,5.4484,5.4421,5.4616,5.4621,5.4625,5.466,5.4669,5.4677,0,0,0,0,0,5.4098,5.4161,5.4156,5.4172,5.4255,5.4318,5.4328,5.4337,5.4314,5.4345,5.4364,5.4352,5.4472,5.444,5.4455,5.4495,5.4614,5.4619,5.4625,5.4657,5.4668,5.4677,0,0,0,0,0,0,5.412,5.4166,5.4162,5.4241,5.4276,5.4315,5.4354,5.4349,5.439,5.4385,5.4393,5.4402,5.4471,5.449,5.4454,5.4573,5.4539,5.4548,5.4558,5.4569,5.4577,5.4571,5.4426,0,0,0,0,0,5.4135,5.4184,5.4221,5.4287,5.4305,5.4326,5.4354,5.4358,5.4394,5.4408,5.4433,5.4466,5.4512,5.4541,5.4585,5.4663,5.4671,5.4697,5.4706,5.4713,5.472,5.4763,5.4775,5.4647,5.4647,5.4646,0,0,5.4165,5.4196,5.4226,5.4292,5.432,5.4369,5.4339,5.4392,5.4428,5.4416,5.4482,5.4501,5.4539,5.4613,5.4646,5.463,5.4757,5.472,5.4725,5.4729,5.477,5.4782,5.4793,5.465,5.465,5.4649,0,0,5.4244,5.4273,5.4331,5.436,5.4403,5.4417,5.4431,5.4472,5.4485,5.4551,5.4543,5.4585,5.4663,5.4691,5.4715,5.4806,5.4797,5.482,5.4864,5.4905,5.4915,5.4924,5.4956,5.4968,5.4827,5.4827,5.4827,0,5.4275,5.4351,5.4361,5.4416,5.4445,5.4438,5.4497,5.4523,5.4577,5.4597,5.4579,5.4677,5.4702,5.4782,5.4804,5.4824,5.484,5.4815,5.4913,5.4922,5.4931,5.4962,5.4974,5.483,5.483,5.4829,5.4829,0,5.4387,5.444,5.4481,5.4536,5.457,5.4626,5.4643,5.4676,5.4677,5.4693,5.476,5.479,5.484,5.4859,5.486,5.4939,5.4928,5.4912,5.4878,5.4946,5.4975,5.4986,5.4834,5.4833,5.4832,5.4831,0,0,5.4483,5.4544,5.4559,5.4584,5.4631,5.4671,5.4726,5.4777,5.4804,5.4841,5.4887,5.4954,5.4939,5.4967,5.4971,5.5007,5.5077,5.4986,5.4987,5.5002,5.5166,5.5178,5.5192,5.5072,5.5074,5.5076,5.5163,0,5.4567,5.4668,5.4679,5.4767,5.4815,5.4809,5.4857,5.4891,5.4907,5.4949,5.4965,5.5013,5.499,5.5007,5.5042,5.5061,5.511,5.5055,5.5113,5.5115,5.5104,5.5207,5.522,5.5301,5.5174,5.5176,5.5177,0,5.4679,5.4722,5.4816,5.4857,5.4877,5.4921,5.4968,5.5008,5.5046,5.5054,5.5086,5.5085,5.5141,5.5106,5.5182,5.5144,5.5168,5.5181,5.5185,5.519,5.515,5.5215,5.5327,5.5339,5.5195,5.5194,5.5193,0,5.474,5.4821,5.4888,5.4909,5.4958,5.4989,5.501,5.5046,5.5075,5.5116,5.5135,5.518,5.5205,5.524,5.5251,5.5224,5.5327,5.5292,5.5335,5.5335,5.5356,5.5355,5.5473,5.5372,5.5372,5.5372,5.5372,0,5.4833,5.489,5.4916,5.4957,5.5021,5.5032,5.5095,5.5115,5.5146,5.519,5.5187,5.5227,5.524,5.5282,5.5291,5.5352,5.5364,5.5371,5.5373,5.5372,5.5371,5.5388,5.5382,5.5375,5.5374,5.5374,5.5373,0,5.4912,5.4931,5.5004,5.5045,5.5056,5.5102,5.5136,5.5175,5.5191,5.5246,5.5259,5.5283,5.5333,5.5348,5.5407,5.5413,5.5485,5.5482,5.5474,5.5474,5.5515,5.5511,5.5649,5.5667,5.5554,5.5555,5.5556,0,5.497,5.5014,5.5061,5.5091,5.5114,5.5162,5.5193,5.5206,5.5237,5.5283,5.5316,5.5366,5.5407,5.5486,5.5508,5.5553,5.555,5.5595,5.5557,5.5554,5.5551,5.5548,5.5552,5.5602,5.5604,5.5605,5.5605,0,5.5071,5.5079,5.5124,5.5173,5.521,5.5248,5.5285,5.5309,5.5327,5.5363,5.5415,5.5446,5.5508,5.5557,5.5603,5.5623,5.5617,5.5618,5.563,5.5629,5.5622,5.5626,5.5493,5.5614,5.5613,5.5613,5.5612,5.5612,5.5141,5.5181,5.522,5.527,5.53,5.5335,5.5374,5.5395,5.5439,5.5491,5.5495,5.5551,5.5586,5.5648,5.5671,5.5714,5.57,5.5718,5.5723,5.5727,5.573,5.5616,5.5722,5.5722,5.5722,5.5721,5.5721,0,5.5243,5.5268,5.5314,5.5367,5.5406,5.5399,5.5439,5.5472,5.5522,5.5557,5.5597,5.5657,5.5704,5.573,5.5777,5.5806,5.5805,5.5818,5.5816,5.5821,5.5739,5.5724,5.5819,5.5819,5.5819,5.5819,5.5819,5.5819,5.53,5.5366,5.5378,5.5459,5.5483,5.554,5.5563,5.5595,5.5622,5.5689,5.573,5.5747,5.5777,5.5827,5.587,5.5876,5.5893,5.5908,5.5913,5.5836,5.5826,5.5817,5.5803,5.5912,5.5912,5.599,5.5991,5.5991]}]]